Terug naar catalogus

STARLINK-37461

ActiefCommunicatieVLEO
NORAD 69173·PAYLOAD·🇺🇸 United States

Gelanceerd May 21, 2026 vanaf Cape Canaveral Space Force Station

Loading…

Volgende Passages (komende 24 uur)

TLE

VersSource: CelesTrak SupGP

Epoch: Sep 14, 2026, 23:02 UTC

1 69173C 26111AB  26257.96020833  .00011888  00000+0  35134-3 0  2571
2 69173  53.1568  91.4582 0001315  86.0952 173.2706 15.34375185    14

Volg STARLINK-37461 in realtime met AllMySat

Download on the App Store